Powrót do katalogu

STARLINK-32636

AktywnyŁącznośćVLEO
NORAD 62232·PAYLOAD·🇺🇸 United States

Wystrzelony Dec 5, 2024 z Vandenberg Space Force Base

Loading…

Następne Przeloty (najbliższe 24 godziny)

TLE

ŚwieżeSource: CelesTrak SupGP

Epoka: Sep 15, 2026, 02:21 UTC

1 62232C 24231Q   26258.09840278 -.00023683  00000+0 -69959-3 0  2580
2 62232  53.1599  59.1281 0001199  88.1578  65.0426 15.34408308    12

Śledź STARLINK-32636 w czasie rzeczywistym z AllMySat

Download on the App Store